Weather Roundup
Issued by NWS

Home | Current Version | Previous Version | Graphics & Text | Print | Product List | Glossary Off
Versions: 1 2 3 4 5 6 7 8 9 10 11 12 13 14 15 16 17 18 19 20 21 22 23 24 25 26 27 28 29 30 31 32 33 34 35 36 37 38 39 40 41 42 43 44 45 46 47 48 49 50

046
NZUS93 KARX 192359
HRRWXR

CURRENT HOURLY OBSERVATIONS ACROSS
MUCH OF THE UPPER MISSISSIPPI VALLEY
NATIONAL WEATHER SERVICE LA CROSSE WI
700 PM CDT TUE SEP 19 2017


...SOUTHEAST MINNESOTA...


CITY           SKY/WX    TMP DP  RH WIND       PRES   REMARKS
ROCHESTER      CLEAR     72  62  71 SE9       29.78R
ROCHESTER/MAYO FAIR      75  60  61 SE12G18   29.77S
WINONA         CLEAR     73  63  68 SE8       29.77F
AUSTIN         CLEAR     73  61  64 SE13      29.73F
ALBERT LEA     CLEAR     77  64  65 SE16G23   29.71S
DODGE CENTER   CLOUDY    73  59  60 SE12      29.75F
PRESTON        CLEAR     73  60  65 SE12      29.79S
OWATONNA       CLOUDY    75  63  64 SE16G24   29.70F
FARIBAULT      CLOUDY    75  63  64 SE13G20   29.70F
$$

...ELSEWHERE IN MINNESOTA...


CITY           SKY/WX    TMP DP  RH WIND       PRES   REMARKS
MINNEAPOLIS    CLOUDY    76  63  64 SE16G23   29.69F
INTNL FALLS    CLOUDY    67  58  72 SE13      29.72F
DULUTH         CLOUDY    60  56  86 E13       29.81F
RED WING       CLOUDY    75  61  60 SE10      29.73S
REDWOOD FALLS  CLOUDY    78  64  61 SE23G33   29.58S
MANKATO        CLOUDY    75  64  68 SE15      29.65F
WORTHINGTON    CLOUDY    76  67  73 SE15G25   29.60S
FAIRMONT       CLOUDY    76  66  71 SE17G29   29.64F
$$

...SOUTHWEST WISCONSIN...


CITY           SKY/WX    TMP DP  RH WIND       PRES   REMARKS
LA CROSSE      CLEAR     77  64  64 SE8       29.79F
PRAIRIE DU CHI CLEAR     77  59  53 SE9       29.81F
BOSCOBEL       CLEAR     78  62  57 VRB3      29.83F
LONE ROCK      NOT AVBL
PLATTEVILLE    CLEAR     75  65  69 SE7       29.86F
FORT MC COY    CLEAR     75  62  63 SE8       29.84S
MAUSTON-NEW LI CLEAR     75  59  57 E5        29.85F
VIROQUA        FAIR      74  64  69 SE9       29.84F
WIS DELLS      NOT AVBL
$$

...ELSEWHERE IN WISCONSIN...


CITY           SKY/WX    TMP DP  RH WIND       PRES   REMARKS
MILWAUKEE      CLOUDY    67  64  90 E5        29.93S
MADISON        PTCLDY    75  63  66 SE10      29.87F
GREEN BAY      CLEAR     66  59  78 E7        29.93F
EAU CLAIRE     NOT AVBL
BLACK RVR FLS  FAIR      77  58  51 SE5       29.82F
MEDFORD        CLEAR     69  56  63 SE7       29.88S
WAUSAU         CLEAR     68  59  73 SE9       29.89S
WIS RAPIDS     CLEAR     72  60  66 SE9       29.89S
MARSHFIELD     CLEAR     69  55  60 E6        29.87S
RICE LAKE      PTCLDY    73  60  65 SE12      29.81F
$$

...NORTHEAST IOWA...


CITY           SKY/WX    TMP DP  RH WIND       PRES   REMARKS
WATERLOO       CLEAR     75  63  66 SE13      29.76S
DUBUQUE        CLEAR     71  64  78 S8        29.86F
DECORAH        CLEAR     73  63  68 SE10      29.79S
MASON CITY     PTCLDY    75  63  66 SE18G25   29.74S
CHARLES CITY   CLEAR     75  64  69 SE15      29.76F
OELWEIN        CLEAR     75  66  73 SE13      29.80S
$$

...ELSEWHERE IN IOWA...


CITY           SKY/WX    TMP DP  RH WIND       PRES   REMARKS
DES MOINES     PTCLDY    81  68  64 SE21      29.71F
IOWA CITY      CLEAR     79  64  60 SE12      29.81F
FORT DODGE     CLEAR     79  68  69 SE15G22   29.68F
MARSHALLTOWN   CLEAR     76  66  71 SE15      29.75F
CEDAR RAPIDS   CLEAR     76  64  66 SE8       29.80F
$$

...NORTHERN ILLINOIS...


CITY           SKY/WX    TMP DP  RH WIND       PRES   REMARKS
CHICAGO-OHARE  PTCLDY    71  62  73 E8        29.91S
CHICAGO-MIDWAY PTCLDY    71  63  75 E9        29.91S
MOLINE         CLEAR     76  63  64 E7        29.84S
ROCKFORD       PTCLDY    74  64  71 SE8       29.89S
PEORIA         CLEAR     76  66  71 SE5       29.87F
$$

NOTE: "FAIR" INDICATES FEW OR NO CLOUDS BELOW 12,000 FEET WITH NO
SIGNIFICANT WEATHER AND/OR OBSTRUCTIONS TO VISIBILITY. WIND
SPEEDS ARE IN MILES-PER-HOUR.




USA.gov is the U.S. government's official web portal to all federal, state and local government web resources and services.